This demonstration page uses our WeatherBlox Daily Observations layout. Learn more.

Left ArrowRight Arrow

Hourly Observations for June 22, 2015

Temp ( °F °C ) Dew Point ( °F °C ) Humidity (%) Winds ( mph kmh ) Pressure ( in mb ) Visibility ( mi km ) Precip ( " mm )
12:53 am 00:53 Clear 47 8.3 41 5 80 80 SSW 3 6 29.98 1015 10 16 0.00 0.00
1:53 am 01:53 Clear 44 6.7 40 4.4 85 85 WSW 7 11 30.01 1016 10 16 0.00 0.00
2:53 am 02:53 Clear 42 5.6 39 3.9 89 89 SW 7 11 30.02 1017 10 16 0.00 0.00
3:53 am 03:53 Clear 39 3.9 37 2.8 93 93 SW 5 7 30.03 1017 10 16 0.00 0.00
4:53 am 04:53 Clear 40 4.4 38 3.3 93 93 W 3 6 30.04 1017 10 16 0.00 0.00
5:53 am 05:53 undefined 38 3.3 36 2.2 93 93 undefined N/A 30.06 1018 10 16 0.00 0.00
6:53 am 06:53 undefined N/A N/A N/A undefined N/A N/A N/A 0.00 0.00
7:53 am 07:53 undefined N/A N/A N/A undefined N/A N/A N/A 0.00 0.00
8:53 am 08:53 undefined N/A N/A N/A undefined N/A N/A N/A 0.00 0.00
9:53 am 09:53 undefined 66 18.9 40 4.4 39 39 SW 7 11 30.05 1018 10 16 0.00 0.00
10:53 am 10:53 Sunny 69 20.6 37 2.8 31 31 VRB 5 7 30.05 1018 10 16 0.00 0.00
11:53 am 11:53 Sunny 70 21.1 37 2.8 30 30 SE 6 9 30.04 1017 10 16 0.00 0.00
12:53 pm 12:53 Sunny 73 22.8 37 2.8 27 27 VRB 6 9 30.03 1017 10 16 0.00 0.00
1:53 pm 13:53 Sunny 75 23.9 35 1.7 23 23 SW 6 9 30.01 1016 10 16 0.00 0.00
2:53 pm 14:53 Sunny 79 26.1 36 2.2 21 21 VRB 6 9 29.99 1016 10 16 0.00 0.00
3:53 pm 15:53 Sunny 79 26.1 35 1.7 20 20 SSE 8 13 29.98 1015 10 16 0.00 0.00
4:53 pm 16:53 Mostly Sunny 79 26.1 35 1.7 20 20 SW 7 11 29.97 1015 10 16 0.00 0.00
5:53 pm 17:53 Mostly Sunny 81 27.2 36 2.2 20 20 VRB 6 9 29.96 1014 10 16 0.00 0.00
6:53 pm 18:53 Sunny 79 26.1 38 3.3 23 23 S 9 15 29.83 1010 10 16 0.00 0.00
7:53 pm 19:53 Sunny 79 26.1 38 3.3 23 23 SW 6 9 29.83 1010 10 16 0.00 0.00
8:53 pm 20:53 Sunny 71 21.7 43 6.1 36 36 S 7 11 29.85 1011 10 16 0.00 0.00
9:53 pm 21:53 Clear 63 17.2 43 6.1 48 48 S 10 17 29.96 1014 10 16 0.00 0.00
10:53 pm 22:53 Mostly Clear 62 16.7 43 6.1 50 50 S 7 11 29.96 1015 10 16 0.00 0.00
11:53 pm 23:53 Clear 58 14.4 42 5.6 56 56 WSW 3 6 29.98 1015 10 16 0.00 0.00

Powered by AerisWeather